Regional Weather Roundup
Issued by NWS Bismarck, ND

Home | Current Version | Previous Version | Text Only | Print | Product List | Glossary On
Versions: 1 2 3 4 5 6 7 8 9 10 11 12 13 14 15 16 17 18 19 20 21 22 23 24 25 26 27 28 29 30 31 32 33 34 35 36 37 38 39 40 41 42 43 44 45 46 47 48 49 50
000
ASUS43 KBIS 300259
RWRBIS

NWR BROADCAST TEXT
NATIONAL WEATHER SERVICE BISMARCK ND
1000 PM CDT WED OCT 29 2014

NOTE: "FAIR" INDICATES FEW OR NO CLOUDS BELOW 12,000 FEET WITH NO
SIGNIFICANT WEATHER AND/OR OBSTRUCTIONS TO VISIBILITY.


CITY           SKY/WX    TMP DP  RH WIND       PRES   REMARKS
WILLISTON      CLEAR     43  36  76 N13       29.99R
MINOT          CLEAR     39  34  82 W10       29.92R
MINOT AFB      NOT AVBL
BISMARCK       MOCLDY    44  43  96 SW5       29.94F
DICKINSON      NOT AVBL
GARRISON         N/A     41  39  93 W8        29.92R
HETTINGER ARPT PTCLDY    37  33  85 NW8       30.00R
JAMESTOWN      NOT AVBL
BEACH            N/A     41  36  81 W13       30.01R
CARRINGTON     LGT RAIN  45  43  93 SW7       29.93R
HARVEY         FAIR      37  37 100 W7        29.91R
HAZEN          FAIR      39  39 100 SW7       29.94R
MANDAN         FAIR      43  41  93 W7        29.94F
$$

CITY           SKY/WX    TMP DP  RH WIND       PRES   REMARKS
GRAND FORKS    CLOUDY    39  30  70 SE9       30.00S
GRAND FORKS AF NOT AVBL
DEVILS LAKE    CLOUDY    41  30  65 SE9       29.91R
FARGO          CLOUDY    41  30  65 SE13      30.00S
CANDO          CLOUDY    37  32  81 E9        29.92S
CAVALIER       MOCLDY    37  28  70 SE3       30.00S
GRAFTON        FAIR      37  28  70 SE10      29.99F
GWINNER        CLOUDY    43  39  87 S3        30.00R
$$

CITY           SKY/WX    TMP DP  RH WIND       PRES   REMARKS
ABERDEEN       CLOUDY    46  35  65 S9        29.97S
MOBRIDGE       CLOUDY    48  37  65 N7        29.94S
RAPID CITY     CLEAR     42  33  70 NW8       30.07S
GLASGOW        CLEAR     42  32  67 N12       30.05R
SIDNEY         CLEAR     43  34  70 W9        30.02R
WOLF POINT     CLEAR     45  34  65 N14       30.03R
GLENDIVE       PTCLDY    45  34  65 W13       30.03R
MILES CITY     CLEAR     42  31  64 W8        30.08R
BAKER          CLEAR     38  34  85 W9        30.04R
$$

CITY           SKY/WX    TMP DP  RH WIND       PRES   REMARKS
BILLINGS       PTCLDY    50  28  42 NW14      30.15R
GREAT FALLS    CLEAR     42  33  70 SW10      30.15R
$$




USA.gov is the U.S. government's official web portal to all federal, state and local government web resources and services.